www.pogodaiklimat.ru
Время
и дата
08:51 30.01
09:51 30.01
10:51 30.01
11:51 30.01
12:51 30.01
13:51 30.01
14:51 30.01
15:14 30.01
15:51 30.01
16:25 30.01
16:51 30.01
17:51 30.01
18:51 30.01
19:01 30.01
19:51 30.01
20:51 30.01
21:51 30.01
22:31 30.01
22:51 30.01
23:51 30.01
23:56 30.01
00:18 31.01
00:37 31.01
00:51 31.01
00:58 31.01
01:06 31.01
01:13 31.01
01:23 31.01
01:43 31.01
01:51 31.01
02:40 31.01
02:51 31.01
03:08 31.01
03:15 31.01
03:33 31.01
03:51 31.01
03:59 31.01
04:06 31.01
04:51 31.01
05:07 31.01
05:16 31.01
05:32 31.01
05:47 31.01
05:51 31.01
06:13 31.01
06:51 31.01
07:14 31.01
07:51 31.01
Ветер
(напр.,м/с)
Видим. Явления Облачность Т
(С)
Тd
(С)
f
(%)
Тe
(С)
Тes
(С)
Комфортность P
(гПа)
Po
(гПа)
Тmin
(С)
Tmax
(С)
R
(мм)
R24
(мм)
S
(см)
С 4 16 км 5/2 1500 m
[Ac Ci]
+0.6 -5.0 66 -4 -4 1022.4 1020.5
В 3 16 км 8/2 1020 m
[Ac Ci]
+1.1 -3.9 69 -3 -2 1022.7 1020.9
В 4 16 км 10/8 1260 m
[Ac]
+0.6 -3.3 75 -5 -4 1022.3 1020.5
ЮВ 2 16 км 10/10 1050 м +0.6 -3.9 72 -3 -3 1022.1 1020.2
В 4 16 км 10/10 1200 м +1.1 -4.4 67 -4 -4 1020.9 1018.8 +1.7
В 4 16 км 8/5 1200 m
[Ac]
+1.1 -5.0 64 -4 -3 1019.6 1017.8
В 2 16 км 10/10 990 м +1.1 -5.0 64 -2 -2 1020.1 1018.2
ЮВ 4 16 км 10/10 870 м +1.7 -5.0 61 -3 -3 1017.8
ЮВ 3 16 км 10/10 1230 м +1.1 -4.4 67 -3 -3 1019.7 1017.8
ЮВ 2 16 км 10/10 600 м +1.1 -4.4 67 -2 -2 1017.5
штиль 0 16 км 10/10 570 м +1.7 -3.9 66 +1 +1 1019.5 1017.8
штиль 0 16 км 10/10 630 м +1.7 -3.9 66 +1 +1 1019.3 1017.5
С 2 16 км 10/10 690 м +1.1 -2.8 75 -2 -2 1019.1 1017.2 +1.1 +1.7
штиль 0 16 км 10/10 690 м +1.1 -3.3 72 0 0 1017.2
С 3 16 км 10/10 780 м +1.1 -2.8 75 -3 -3 1018.7 1016.8
СЗ 3 16 км 10/10 810 м +0.6 -2.8 78 -4 -4 1018.8 1016.8
С 3 13 км слабый снег 10/10 510 m
[Ns]
+0.6 -2.2 81 -4 -4 1018.7 1016.8
СЗ 2 4 км слабый снег, дымка 10/10 420 m
[Ns]
0.0 -1.1 92 -4 -4 1017.2
С 3 3 км слабый снег, дымка 10/10 360 m
[Ns]
-0.6 -1.1 96 -6 -6 1018.8 1016.8
С 3 3 км слабый снег, дымка 10/10 360 m
[Ns]
-0.6 -1.7 92 -6 -6 1018.4 1016.5
С 3 5 км слабый снег, дымка 10/10 210 m
[Ns]
-1.1 -1.7 96 -6 -6 1016.5
СВ 3 3 км слабый снег, дымка 10/10 240 m
[Ns]
-1.1 -1.7 96 -6 -6 1016.1
СВ 3 5 км слабый снег, дымка 10/10 150 m
[Ns]
-1.1 -2.2 92 -6 -6 1015.8
СВ 3 3 км слабый снег, дымка 10/10 120 m
[Ns]
-1.7 -2.2 96 -7 -7 1017.6 1015.8 -1.7 +1.7 1.0
СВ 3 2 км слабый снег, дымка 10/10 150 m
[Ns]
-1.7 -2.2 96 -7 -7 1015.8
СВ 3 2 км слабый снег, дымка 10/10 150 m
[Ns]
-1.7 -2.2 96 -7 -7 1015.8
С 3 3 км слабый снег, дымка 10/10 150 m
[Ns]
-1.7 -2.8 92 -7 -7 1016.1
С 3 4 км слабый снег, дымка 10/10 150 m
[Ns]
-1.7 -2.8 92 -7 -7 1016.1
СВ 2 5 км слабый снег, дымка 10/10 180 m
[Ns]
-2.2 -2.8 96 -6 -6 1016.1
СВ 2 5 км слабый снег, дымка 10/10 210 m
[Ns]
-2.2 -2.8 96 -6 -6 1018.2 1016.5
С 5 4 км слабый снег, дымка 10/10 210 m
[Ns]
-2.2 -3.9 88 -9 -9 1016.8
С 4 3 км слабый снег, дымка 10/10 240 m
[Ns]
-2.8 -4.4 89 -9 -9 1018.6 1016.8
СВ 2 5 км слабый снег, дымка 10/10 540 m
[Ns]
-2.8 -3.9 92 -7 -7 1016.8
СВ 3 3 км слабый снег, дымка 10/10 570 m
[Ns]
-2.8 -3.9 92 -8 -8 1016.5
С 4 5 км слабый снег, дымка 10/10 630 m
[Ns]
-2.8 -4.4 89 -9 -9 1017.2
С 4 5 км слабый снег, дымка 10/10 690 m
[Ns]
-2.8 -4.4 89 -9 -9 1018.9 1017.2 1.0
С 4 4 км слабый снег, дымка 10/10 750 m
[Ns]
-2.8 -4.4 89 -9 -9 1017.2
С 3 8 км слабый снег, дымка 10/10 750 m
[Ns]
-2.8 -4.4 89 -8 -8 1017.2
СВ 2 6 км слабый снег, дымка 10/10 360 m
[Ns]
-2.8 -4.4 89 -7 -7 1019.5 1017.5
СВ 2 3 км слабый снег, дымка 10/10 330 m
[Ns]
-2.8 -5.0 85 -7 -7 1017.5
СВ 3 3 км слабый снег, дымка 10/10 300 m
[Ns]
-3.3 -5.0 88 -9 -9 1017.5
СВ 2 3 км слабый снег, дымка 10/10 300 m
[Ns]
-3.3 -5.0 88 -7 -7 1017.2
СВ 2 5 км слабый снег, дымка 10/10 1080 m
[Ns]
-3.0 -5.0 86 -7 -7 1017.5
СВ 2 5 км слабый снег, дымка 10/10 1230 m
[Ns]
-3.3 -5.0 88 -7 -7 1019.3 1017.5
штиль 0 13 км 10/2 1650 m
[Ac]
-3.3 -5.0 88 -4 -4 1017.8
штиль 0 16 км 10/2 870 m
[Ac]
-3.3 -5.0 88 -4 -4 1020.1 1018.2 -3.3 -1.7 1.5 2.5
С 2 16 км 10/8 780 m
[Ac]
-3.3 -5.0 88 -7 -7 1018.5
штиль 0 16 км 10/10 660 м -2.8 -5.6 81 -4 -4 1020.7 1018.8
Местоположение метеостанции Portland International Jetport: широта 43.6497 долгота -70.3003 высота над уровнем моря 14 м.
В архиве по умолчанию представлена погода в Портленде за последние 1-2 суток. Обновление информации о фактической погоде в базе происходит ежечасно! Архивные данные за месяц целиком и за предыдущие месяцы Вы можете получить, выбрав интересующий диапазон дат из раскрывающегося списка и нажав кнопку "Ввод!".
Внимание! Архив погоды МЕТАР в базе сайта по станциям, не включенным в климатический монитор, хранится не более 60 дней. Нет смысла пытаться выбрать более раннюю дату.
*Определитесь, кто Вы:
Внимание! Время в таблицах - местное (без учета летнего времени). Для получения всемирного времени необходимо вычесть поправку, которая равна -5 ч.
Смотрите также архив погоды в соседних городах и на ближайших метеорологических станциях:
Партнеры нашего сайта:      
Пояснения к столбцам:
  • Ветер - указаны скорость ветра в м/с - средняя за 10 мин, порывы в срок и между сроками (в фигурных скобках) и направление, откуда дует ветер: С - северный,
  • СВ - северо-восточный, В - восточный, ЮВ - юго-восточный, Ю - южный, ЮЗ - юго-западный, З - западный, СЗ - северо-западный.
  • Видимость - горизонтальная дальность видимости в метрах или километрах. При видимости от 1 до 10 км при отсутствии осадков обычно наблюдается дымка, при ухудшении видимости до 1 км и менее - туман. В сухую погоду видимость может ухудшаться дымом, пылью или мглою.
  • Явления - указаны атмосферные явления, наблюдавшиеся в срок или в последний час перед сроком; фигурными скобками обозначены явления, наблюдавшиеся между сроками (за 1-3 часа до срока); квадратными скобками обозначены град или гололедные отложения с указанием их диаметра в мм.
  • Облачность - указаны через наклонную черту общая и нижняя облачность в баллах и высота нижней границы облаков в метрах; квадратными скобками обозначены формы облаков: Ci - перистые, Cs - перисто-слоистые, Cc - перисто-кучевые, Ac - высококучевые, As - высокослоистые, Sc - слоисто-кучевые, Ns - слоисто-дождевые, Cu - кучевые, Cb - кучево-дождевые. Подробнее классификацию облаков см. в Атласе облаков (PDF).
  • T - Температура воздуха - температура, измеренная на высоте 2 м над землей.
  • Td - Температура точки росы - температура, при понижении до которой содержащийся в воздухе водяной пар достигнет насыщения.
  • f - Относительная влажность воздуха - влажноcть воздуха, измеренная на высоте 2 м над землей.
  • Te - Эффективная температура - температура, которую ощущает одетый по сезону человек в тени. Характеристика душности погоды. При расчете учитывается влияние влажности воздуха и скорости ветра на теплоощущения человека.
  • Tes - Эффективная температура на солнце - температура, которую ощущает человек, с поправкой на солнечный нагрев. Характеристика знойности погоды. Зависит от высоты солнца над горизонтом, облачности и скорости ветра. Ночью, в пасмурную погоду, а также при ветре 12 м/с и более поправка равна нулю.
  • P - Атмосферное давление - приведенное к уровню моря атмосферное давление.
  • Po - Атмосферное давление - измеренное на уровне метеостанции атмосферное давление.
  • Tmin - Минимальная температура - минимум температуры воздуха на высоте 2 м над землей.
  • Tmax - Максимальная температура - максимум температуры воздуха на высоте 2 м над землей.
  • R - Количество осадков - Количество выпавших осадков за период времени, мм. При наведении курсора мыши на число - период времени, за который выпало указанное количество осадков.
  • R24 - Количество осадков - Количество выпавших осадков за 24 часа, мм.
  • S - Снежный покров - Высота снежного покрова, см. При наведении курсора мыши на число - состояние снежного покрова и степень покрытия местности в баллах.